EHI
0 0 0 0 0 0 0 0 0 0 0 0 0 0 0 0 0 0 0 0 0 0 0 0 0 0 0 0 0 0 0 0 0 0 0 0 0 0 0 0 0 0 0
0 0 0 0 0 0 0 0 0 0 0 0 0 0 0 0 0 0 0 0 0 0 0 0 0 0 0 0 0 0 0 0 0 0 0 0 0 0 0 0 0 0 0
0 0 0 0 0 0 0 0 0 0 0 0 0 0 0 0 0 0 0 0 0 0 0 0 0 0 0 0 0 0 0 0 0 0 0 0 0 0 0 0 0 0 0
0 0 0 0 0 0 0 0 0 0 0 0 0 0 0 0 0 0 0 0 0 0 0 0 0 0 0 0 0 0 0 0 0 0 0 0 0 0 0 0 0 0 0
0 0 0 0 0 0 0 0 0 0 0 0 0 0 0 0 0 0 0 0 0 0 0 0 0 0 0 0 0 0 0 0 0 0 0 0 0 0 0 0 0 0 0
0 0 0 0 0 0 0 0 0 0 0 0 0 0 0 0 0 0 0 0 0 0 0 0 0 0 0 0 0 0 0 0 0 0 0 0 0 0 0 0 0 0 0
0 0 0 0 0 0 0 0 0 0 0 0 0 0 0 0 0 0 0 0 0 0 0 0 0 0 0 0 0 0 0 0 0 0 0 0 0 0 0 0 0 0 0
0 0 0 0 0 0 0 0 0 0 0 0 0 0 0 0 0 0 0 0 0 0 0 0 0 0 0 0 0 0 0 0 0 0 0 0 0 0 0 0 0 0 0
0 0 0 0 0 0 0 0 0 0 0 0 0 0 0 0 0 0 0 0 0 0 0 0 0 0 0 0 0 0 0 0 0 0 0 0 0 0 0 0 0 0 0
0 0 0 0 0 0 0 0 0 0 0 0 0 0 0 0 0 0 0 0 0 0 0 0 0 0 0 0 0 0 0 0 0 0 0 0 0 0 0 0 0 0 0
0 0 0 0 0 0 0 0 0 0 0 0 0 0 0 0 0 0 0 0 0 0 0 0 0 0 0 0 0 0 0 0 0 0 0 0 0 0 0 0 0 0 0
0 0 0 0 0 0 0 0 0 0 0 0 0 0 0 0 0 0 0 0 0 0 0 0 0 0 0 0 0 0 0 0 0 0 0 0 0 0 0 0 0 0 0
0 0 0 0 0 0 0 0 0 0 0 0 0 0 0 0 0 0 0 0 0 0 0 0 0 0 0 0 0 0 0 0 0 0 0 0 0 0 0 0 0 0 0
0 0 0 0 0 0 0 0 0 0 0 0 0 0 0 0 0 0 0 0 0 0 0 0 0 0 0 0 0 0 0 0 0 0 0 0 0 0 0 0 0 0 0
0 0 0 0 0 0 0 0 0 0 0 0 0 0 0 0 0 0 0 0 0 0 0 0 0 0 0 0 0 0 0 0 0 0 0 0 0 0 0 0 0 0 0
0 0 0 0 0 0 0 0 0 0 0 0 0 0 0 0 0 0 0 0 0 0 0 0 0 0 0 0 0 0 0 0 0 0 0 0 0 0 0 0 0 0 0
0 0 0 0 0 0 0 0 0 0 0 0 0 0 0 0 0 0 0 0 0 0 0 0 0 0 0 0 0 0 0 0 0 0 0 0 0 0 0 0 0 0 0
0 0 0 0 0 0 0 0 0 0 0 0 0 0 0 0 0 0 0 0 0 0 0 0 0 0 0 0 0 0 0 0 0 0 0 0 0 0 0 0 0 0 0
0 0 0 0 0 0 0 0 0 0 0 0 0 0 0 0 0 0 0 0 0 0 0 0 0 0 0 0 0 0 0 0 0 0 0 0 0 0 0 0 0 0 0
0 0 0 0 0 0 0 0 0 0 0 0 0 0 0 0 0 0 0 0 0 0 0 0 0 0 0 0 0 0 0 0 0 0 0 0 0 0 0 0 0 0 0
0 0 0 0 0 0 0 0 0 0 0 0 0 0 0 0 0 0 0 0 0 0 0 0 0 0 0 0 0 0 0 0 0 0 0 0 0 0 0 0 0 0 0
0 0 0 0 0 0 0 0 0 0 0 0 0 0 0 0 0 0 0 0 0 0 0 0 0 0 0 0 0 0 0 0 0 0 0 0 0 0 0 0 0 0 0
0 0 0 0 0 0 0 0 0 0 0 0 0 0 0 0 0 0 0 0 0 0 0 0 0 0 0 0 0 0 0 0 0 0 0 0 0 0 0 0 0 0 0
0 0 0 0 0 0 0 0 0 0 0 0 0 0 0 0 0 0 0 0 0 0 0 0 0 0 0 0 0 0 0 0 0 0 0 0 0 0 0 0 0 0 0
0 0 0 0 0 0 0 0 0 0 0 0 0 0 0 0 0 0 0 0 0 0 0 0 0 0 0 0 0 0 0 0 0 0 0 0 0 0 0 0 0 0 0
0 0 0 0 0 0 0 0 0 0 0 0 0 0 0 0 0 0 0 0 0 0 0 0 0 0 0 0 0 0 0 0 0 0 0 0 0 0 0 0 0 0 0
Wind_Speed
9 12 16 14 13 13 13 12 12 13 12 12 13 13 13 13 14 14 14 15 15 15 15 16 16 16 16 16 16 16 15 16 16 17 18 18 18 18 18 18 15 11 18
13 14 16 15 14 13 13 13 13 12 12 12 12 13 13 13 13 14 14 14 14 15 15 15 15 15 15 15 15 15 14 14 14 14 16 15 16 17 17 17 16 11 16
15 15 14 15 14 14 13 13 13 12 12 12 12 12 12 12 13 13 13 14 14 14 14 14 14 14 15 15 14 14 13 12 12 12 13 7 9 15 15 15 15 15 15
15 14 13 16 15 14 14 14 13 12 12 12 11 12 12 12 12 12 13 13 13 13 13 13 13 14 14 14 13 13 12 12 12 13 8 7 7 13 14 13 13 13 13
13 12 14 17 15 15 14 14 13 12 12 12 11 11 11 11 12 12 12 12 12 12 12 12 12 13 13 13 12 12 11 11 11 10 6 6 6 11 12 12 11 11 11
11 13 14 17 16 15 14 14 13 12 12 11 11 11 11 11 11 11 11 11 11 11 11 11 11 11 11 11 11 11 10 11 9 5 5 6 5 9 10 10 10 9 9
12 13 14 17 16 15 14 14 13 12 12 11 11 10 10 10 10 10 9 9 9 10 10 10 10 10 10 10 10 10 9 9 3 3 4 5 5 9 9 9 8 8 8
12 14 13 17 16 15 15 14 13 12 12 11 10 10 9 9 9 8 8 8 8 8 8 8 8 8 8 8 8 8 8 8 6 3 3 5 7 9 9 9 8 8 8
12 13 11 10 11 14 14 14 13 12 12 11 10 9 9 8 8 7 7 6 6 6 6 6 6 6 5 5 5 6 7 8 5 3 3 4 7 9 9 9 9 9 9
10 13 12 11 10 9 9 12 13 12 12 11 10 8 8 7 7 6 6 5 4 4 4 4 4 4 3 3 3 5 7 8 5 2 3 3 7 9 10 10 10 10 9
9 10 12 12 11 10 9 11 11 11 11 10 9 9 7 4 5 5 6 5 2 1 1 1 2 3 4 5 5 6 7 3 3 1 3 4 6 9 10 11 10 10 10
10 10 11 12 11 11 10 9 6 7 7 6 6 6 5 3 3 4 7 5 3 2 3 4 5 6 5 2 4 6 3 3 3 1 2 4 5 9 10 11 11 11 11
10 9 10 10 11 10 7 8 5 4 5 6 7 7 4 3 2 3 3 3 4 5 3 3 4 3 1 1 1 2 2 2 2 1 2 3 4 8 10 11 10 10 10
11 10 9 10 9 9 8 7 6 4 4 4 5 6 4 2 2 2 2 2 2 1 1 1 2 2 2 2 2 3 3 2 2 1 2 2 3 6 9 9 9 9 9
12 12 10 10 10 8 8 6 6 5 5 5 4 4 4 3 3 2 1 1 1 0 0 1 2 2 2 3 3 3 4 4 3 1 1 2 1 3 6 8 8 9 9
13 13 10 11 10 9 7 6 5 5 5 5 4 5 5 3 3 2 1 1 1 1 1 1 2 2 2 2 3 4 3 3 3 3 1 2 3 2 4 6 7 8 9
12 13 12 11 11 10 9 7 5 5 6 5 5 5 5 4 4 3 2 1 1 1 0 1 2 2 2 2 3 4 3 3 3 3 2 1 2 2 2 3 5 8 9
11 13 13 10 11 11 9 8 5 5 6 5 5 5 5 5 4 3 2 2 2 1 1 0 1 1 2 2 3 3 3 3 3 2 2 1 2 2 2 1 2 6 8
11 12 13 11 11 11 10 7 6 6 6 5 5 5 5 5 4 3 2 2 2 2 1 0 1 1 2 3 3 3 3 3 2 2 2 1 2 1 1 2 2 5 8
9 11 12 12 10 10 8 6 5 5 5 5 5 5 6 5 5 4 3 2 3 2 1 0 1 1 1 1 3 4 4 3 1 0 1 1 0 0 0 0 1 3 7
9 10 12 12 11 9 8 8 7 6 5 4 4 6 6 5 5 4 3 3 2 2 1 1 1 2 2 2 2 4 4 3 1 1 1 1 1 1 1 2 1 1 3
9 9 11 12 11 10 8 7 6 6 4 4 4 5 6 6 5 4 4 3 3 2 2 2 2 1 1 1 1 2 4 5 3 2 1 1 1 2 2 2 2 2 2
8 9 9 11 11 10 9 6 6 5 4 3 4 4 5 6 6 5 4 4 4 3 2 2 2 2 0 1 1 2 1 2 4 4 3 1 2 2 2 3 3 3 3
8 8 8 9 10 10 10 9 10 7 6 5 5 4 5 6 6 5 5 5 4 3 3 3 2 2 2 0 1 0 1 2 0 4 4 3 3 3 4 3 3 3 3
7 7 7 8 9 9 10 10 10 7 5 5 6 7 6 5 6 6 5 5 4 3 4 3 2 2 1 2 1 0 1 1 2 2 5 5 4 3 3 4 4 4 4
7 6 6 7 8 9 10 10 10 9 8 8 8 8 6 4 4 6 6 5 4 4 4 4 3 2 1 1 1 1 2 2 2 2 4 5 5 4 5 4 4 4 4
Wind_Direction
130 137 147 141 134 128 121 114 108 102 97 93 87 82 78 75 73 71 69 68 66 64 62 61 60 59 59 59 59 58 58 57 56 57 57 55 56 56 53 52 53 47 52
134 137 147 142 136 130 125 118 111 105 100 95 89 85 82 78 76 75 72 69 67 64 63 62 60 60 59 59 58 57 57 55 52 54 58 53 53 55 54 52 52 50 51
132 137 147 144 138 131 127 122 115 109 105 98 93 90 87 83 79 77 74 72 70 67 65 63 61 60 60 59 57 55 54 49 42 42 56 51 46 52 53 51 50 49 49
134 140 146 144 138 132 128 125 120 115 109 103 99 95 91 87 83 80 77 74 72 69 67 64 62 60 59 58 57 54 50 43 33 44 47 43 37 48 50 48 48 47 46
136 140 141 145 141 136 132 129 125 121 115 110 105 100 95 90 86 82 78 76 74 71 68 65 63 60 59 57 55 50 42 30 32 44 39 46 37 37 45 44 42 42 42
137 134 142 148 146 141 137 132 130 125 120 115 111 106 100 95 90 86 82 79 76 73 70 66 63 60 57 54 51 45 34 22 39 42 43 45 27 24 36 38 34 34 34
141 135 147 152 151 147 144 139 135 129 127 122 118 113 108 102 97 92 87 82 77 73 69 65 61 58 54 50 45 37 23 3 25 66 60 61 23 16 21 25 20 19 20
138 135 146 154 154 152 149 144 141 137 134 131 127 122 116 112 107 103 95 86 78 72 65 60 56 52 48 43 35 23 6 351 355 28 81 76 27 8 7 9 4 2 2
137 137 146 154 156 156 153 150 147 144 141 139 135 131 127 124 119 113 105 94 82 71 61 54 49 41 35 28 19 360 340 325 320 297 74 73 21 0 355 354 350 347 346
142 145 153 159 159 157 154 153 151 150 149 147 143 140 142 143 140 136 122 105 86 65 52 41 35 20 3 338 323 315 311 308 277 265 87 69 22 354 345 342 340 337 335
155 154 159 163 163 162 160 158 153 154 155 152 150 157 161 174 170 160 133 135 123 84 26 12 338 313 299 278 268 279 295 277 300 54 97 71 18 348 338 335 333 331 329
169 168 165 164 164 164 162 156 160 162 158 166 164 171 190 190 148 138 141 167 196 230 253 254 268 282 278 263 239 254 273 321 346 13 97 71 12 343 334 330 329 327 327
173 174 169 163 163 162 155 161 166 163 163 182 173 176 180 150 143 144 161 181 208 224 236 237 259 258 289 317 286 281 304 332 302 357 111 76 5 341 331 328 327 328 330
173 177 171 161 160 159 158 164 164 160 165 171 169 170 162 151 166 171 177 175 195 190 201 271 275 289 304 307 307 313 319 317 307 317 159 134 18 346 335 332 334 335 337
173 173 174 164 163 161 160 165 166 162 163 163 161 172 161 157 172 174 176 168 173 137 240 280 289 317 325 323 323 320 318 315 312 319 135 148 105 2 345 343 344 345 346
172 172 172 169 167 164 162 164 166 161 157 160 161 174 170 164 163 166 179 167 176 189 222 270 299 328 318 330 323 313 311 326 334 342 25 138 120 80 5 357 355 354 353
169 168 171 173 170 168 169 170 167 159 155 160 162 175 171 164 165 170 177 174 183 185 219 337 345 344 329 334 330 330 339 331 329 336 5 93 121 121 75 18 2 353 351
166 167 171 174 174 172 172 172 166 164 160 161 161 169 171 170 172 173 167 172 156 118 85 38 352 350 340 348 338 331 327 324 333 342 349 17 96 111 129 140 351 343 343
168 165 168 170 174 173 171 170 165 163 160 160 161 164 168 172 171 158 159 157 132 117 115 268 71 50 357 349 331 317 309 307 312 331 347 52 94 118 151 202 262 316 328
168 163 165 167 173 168 165 166 161 160 162 161 159 160 159 163 161 154 148 140 127 129 146 14 39 44 42 6 332 314 293 271 263 2 1 42 72 169 89 306 279 309 325
164 164 165 167 173 168 167 171 169 171 165 161 155 158 158 159 155 148 141 145 135 139 145 101 67 32 26 26 3 328 312 291 117 96 22 14 342 354 345 327 323 345 327
167 168 166 168 172 172 170 169 165 160 160 154 149 155 159 155 150 151 156 151 141 132 113 96 90 53 2 58 71 4 343 342 352 345 328 314 330 352 334 326 327 331 322
170 172 172 171 169 169 161 155 148 137 131 136 152 158 161 153 147 148 156 146 140 139 140 131 119 119 57 352 94 116 80 296 317 313 311 318 333 325 306 301 298 308 308
168 164 167 164 163 165 161 164 164 163 164 168 161 159 159 154 151 153 151 141 142 139 140 141 126 130 126 238 347 122 189 188 229 309 312 314 326 310 298 296 298 288 281
147 149 158 158 161 165 166 168 168 169 166 154 153 158 162 158 154 153 149 143 147 143 140 136 131 141 148 171 180 220 294 313 218 224 284 302 312 294 298 294 284 276 271
130 139 152 158 162 166 168 172 178 176 169 160 161 163 162 156 153 155 151 151 153 146 145 148 154 165 177 186 197 200 195 214 239 239 263 288 293 288 292 281 276 269 263